NUSANTARA TIGA (SATRIA)

Last updated on Thu Nov 21 2024 00:02:45 GMT+0000 (Coordinated Universal Time)

1 57045U 23086A 24325.50625965 -.00000234 00000+0 00000+0 0 9992 2 57045 0.0362 7.4713 0004735 284.1481 96.6502 1.00269553 4006
UTC large
Height (km)
Speed (km/s)
/
Latitude / Longitude
Inclination (degrees)
Orbital Period (minutes)
Azimuth
Elevation
Range (km)
Doppler Factor

Next 0 passes for location: London (51.5072 / 0.1276)

Sorry there are no passes over London.